Time,TemperatureF,DewpointF,PressureIn,WindDirection,WindDirectionDegrees,WindSpeedMPH,WindSpeedGustMPH,Humidity,HourlyPrecipIn,Conditions,Clouds,dailyrainin,SoftwareType,DateUTC
2013-10-01 00:01:00,60.8,56.3,29.77,North,-999,0.0,1.6,85,0.00,,,0.00,pywws,2013-10-01 05:01:00,
2013-10-01 00:11:00,60.8,56.3,29.77,SW,225,0.7,2.2,85,0.00,,,0.00,pywws,2013-10-01 05:11:00,
2013-10-01 00:21:00,61.3,57.1,29.77,South,180,3.1,3.8,86,0.00,,,0.00,pywws,2013-10-01 05:21:00,
2013-10-01 00:31:00,61.7,57.5,29.77,West,270,3.1,6.9,86,0.00,,,0.00,pywws,2013-10-01 05:31:00,
2013-10-01 00:41:00,61.9,58.0,29.77,SW,225,2.2,4.5,87,0.00,,,0.00,pywws,2013-10-01 05:41:00,
2013-10-01 00:51:00,62.1,58.1,29.77,South,180,2.2,4.5,87,0.00,,,0.00,pywws,2013-10-01 05:51:00,
2013-10-01 01:01:00,62.2,58.6,29.77,South,180,1.6,3.1,88,0.00,,,0.00,pywws,2013-10-01 06:01:00,
2013-10-01 01:11:00,62.2,58.6,29.77,SW,225,4.5,7.6,88,0.00,,,0.00,pywws,2013-10-01 06:11:00,
2013-10-01 01:21:00,62.4,59.1,29.77,SW,225,2.2,4.5,89,0.00,,,0.00,pywws,2013-10-01 06:21:00,
2013-10-01 01:31:00,62.4,59.1,29.77,West,270,1.6,2.2,89,0.00,,,0.00,pywws,2013-10-01 06:31:00,
2013-10-01 01:41:00,62.2,59.3,29.77,SW,225,1.6,3.1,90,0.00,,,0.00,pywws,2013-10-01 06:41:00,
2013-10-01 01:51:00,62.2,59.3,29.77,South,180,2.2,3.8,90,0.00,,,0.00,pywws,2013-10-01 06:51:00,
2013-10-01 02:01:00,62.2,59.3,29.78,West,270,1.6,3.1,90,0.00,,,0.00,pywws,2013-10-01 07:01:00,
2013-10-01 02:11:00,62.1,59.4,29.78,West,270,2.2,3.1,91,0.00,,,0.00,pywws,2013-10-01 07:11:00,
2013-10-01 02:21:00,61.7,59.0,29.78,South,180,1.6,2.2,91,0.00,,,0.00,pywws,2013-10-01 07:21:00,
2013-10-01 02:31:00,61.5,59.2,29.78,SW,225,1.6,3.1,92,0.00,,,0.00,pywws,2013-10-01 07:31:00,
2013-10-01 02:41:00,61.0,58.6,29.78,WSW,248,1.6,2.2,92,0.00,,,0.00,pywws,2013-10-01 07:41:00,
2013-10-01 02:51:00,60.4,58.4,29.77,West,270,1.6,4.5,93,0.00,,,0.00,pywws,2013-10-01 07:51:00,
2013-10-01 03:01:00,60.3,58.5,29.77,West,270,1.6,2.2,94,0.00,,,0.00,pywws,2013-10-01 08:01:00,
2013-10-01 03:11:00,60.3,58.5,29.77,SW,225,1.6,2.2,94,0.00,,,0.00,pywws,2013-10-01 08:11:00,
2013-10-01 03:21:00,59.9,58.5,29.77,NW,315,1.6,3.1,95,0.00,,,0.00,pywws,2013-10-01 08:21:00,
2013-10-01 03:31:00,59.7,58.6,29.77,NW,315,0.7,2.2,96,0.00,,,0.00,pywws,2013-10-01 08:31:00,
2013-10-01 03:41:00,59.5,58.4,29.77,SW,225,2.2,4.5,96,0.00,,,0.00,pywws,2013-10-01 08:41:00,
2013-10-01 03:51:00,59.7,58.6,29.77,SW,225,1.6,2.2,96,0.00,,,0.00,pywws,2013-10-01 08:51:00,
2013-10-01 04:01:00,59.7,58.9,29.77,West,270,2.2,3.8,97,0.00,,,0.00,pywws,2013-10-01 09:01:00,
2013-10-01 04:11:00,59.7,58.9,29.77,South,180,1.6,3.1,97,0.00,,,0.00,pywws,2013-10-01 09:11:00,
2013-10-01 04:21:00,59.9,59.0,29.76,West,270,1.6,3.8,97,0.00,,,0.00,pywws,2013-10-01 09:21:00,
2013-10-01 04:31:00,59.9,59.0,29.76,West,270,2.2,4.5,97,0.00,,,0.00,pywws,2013-10-01 09:31:00,
2013-10-01 04:41:00,60.1,59.2,29.77,South,180,1.6,3.1,97,0.00,,,0.00,pywws,2013-10-01 09:41:00,
2013-10-01 04:51:00,59.9,59.0,29.77,SW,225,1.6,3.1,97,0.00,,,0.00,pywws,2013-10-01 09:51:00,
2013-10-01 05:01:00,59.9,59.0,29.78,West,270,0.7,2.2,97,0.00,,,0.00,pywws,2013-10-01 10:01:00,
2013-10-01 05:11:00,60.3,59.4,29.80,SW,225,2.2,3.8,97,0.00,,,0.00,pywws,2013-10-01 10:11:00,
2013-10-01 05:21:00,60.1,59.2,29.79,SW,225,1.6,4.5,97,0.00,,,0.00,pywws,2013-10-01 10:21:00,
2013-10-01 05:31:00,60.3,59.1,29.78,South,180,1.6,3.1,96,0.00,,,0.00,pywws,2013-10-01 10:31:00,
2013-10-01 05:41:00,60.6,59.5,29.78,NW,315,2.2,3.1,96,0.00,,,0.00,pywws,2013-10-01 10:41:00,
2013-10-01 05:51:00,60.8,59.1,29.78,West,270,1.6,3.1,94,0.00,,,0.00,pywws,2013-10-01 10:51:00,
2013-10-01 06:01:00,60.8,58.8,29.78,West,270,0.7,2.2,93,0.00,,,0.00,pywws,2013-10-01 11:01:00,
2013-10-01 06:11:00,60.6,58.9,29.78,SW,225,1.6,2.2,94,0.00,,,0.00,pywws,2013-10-01 11:11:00,
2013-10-01 06:21:00,60.6,58.9,29.78,SW,225,3.1,5.4,94,0.00,,,0.00,pywws,2013-10-01 11:21:00,
2013-10-01 06:31:00,60.4,58.4,29.78,South,180,0.7,2.2,93,0.00,,,0.00,pywws,2013-10-01 11:31:00,
2013-10-01 06:41:00,60.3,58.5,29.78,SW,225,1.6,3.1,94,0.00,,,0.00,pywws,2013-10-01 11:41:00,
2013-10-01 06:51:00,60.1,58.3,29.78,South,180,2.2,5.4,94,0.00,,,0.00,pywws,2013-10-01 11:51:00,
2013-10-01 07:01:00,59.9,58.2,29.78,SW,225,2.2,3.8,94,0.00,,,0.00,pywws,2013-10-01 12:01:00,
2013-10-01 07:11:00,59.9,58.2,29.78,South,180,4.5,6.9,94,0.00,,,0.00,pywws,2013-10-01 12:11:00,
2013-10-01 07:21:00,59.9,58.2,29.79,SW,225,1.6,3.1,94,0.00,,,0.00,pywws,2013-10-01 12:21:00,
2013-10-01 07:31:00,59.9,58.2,29.80,West,270,2.2,3.1,94,0.00,,,0.00,pywws,2013-10-01 12:31:00,
2013-10-01 07:41:00,60.6,58.6,29.81,SW,225,0.7,1.6,93,0.00,,,0.00,pywws,2013-10-01 12:41:00,
2013-10-01 07:51:00,62.1,59.1,29.81,West,270,0.7,3.1,90,0.00,,,0.00,pywws,2013-10-01 12:51:00,
2013-10-01 08:01:00,61.7,57.5,29.82,North,-999,0.0,0.7,86,0.00,,,0.00,pywws,2013-10-01 13:01:00,
2013-10-01 08:11:00,63.0,58.4,29.81,South,180,3.8,6.0,85,0.00,,,0.00,pywws,2013-10-01 13:11:00,
2013-10-01 08:21:00,61.7,57.5,29.81,WNW,292,1.6,2.2,86,0.00,,,0.00,pywws,2013-10-01 13:21:00,
2013-10-01 08:31:00,62.2,58.3,29.82,West,270,0.7,2.2,87,0.00,,,0.00,pywws,2013-10-01 13:31:00,
2013-10-01 08:41:00,63.7,58.4,29.83,SW,225,1.6,3.8,83,0.00,,,0.00,pywws,2013-10-01 13:41:00,
2013-10-01 08:51:00,63.7,58.4,29.83,South,180,3.1,5.4,83,0.00,,,0.00,pywws,2013-10-01 13:51:00,
2013-10-01 09:01:00,64.2,58.9,29.83,SW,225,3.8,6.0,83,0.00,,,0.00,pywws,2013-10-01 14:01:00,
2013-10-01 09:11:00,68.4,60.1,29.83,South,180,2.2,3.8,75,0.00,,,0.00,pywws,2013-10-01 14:11:00,
2013-10-01 09:21:00,66.7,58.9,29.84,SW,225,3.8,6.0,76,0.00,,,0.00,pywws,2013-10-01 14:21:00,
2013-10-01 09:31:00,66.6,58.8,29.84,West,270,1.6,3.1,76,0.00,,,0.00,pywws,2013-10-01 14:31:00,
2013-10-01 09:41:00,67.1,58.5,29.85,SW,225,2.2,4.5,74,0.00,,,0.00,pywws,2013-10-01 14:41:00,
2013-10-01 10:01:00,69.1,58.9,29.85,SW,225,2.2,4.5,70,0.00,,,0.00,pywws,2013-10-01 15:01:00,
2013-10-01 10:11:00,69.8,58.8,29.85,SW,225,1.6,3.1,68,0.00,,,0.00,pywws,2013-10-01 15:11:00,
2013-10-01 10:21:00,73.9,59.2,29.85,SW,225,2.2,3.8,60,0.00,,,0.00,pywws,2013-10-01 15:21:00,
2013-10-01 10:31:00,73.2,58.9,29.85,South,180,1.6,3.1,61,0.00,,,0.00,pywws,2013-10-01 15:31:00,
2013-10-01 10:41:00,73.4,58.2,29.86,West,270,1.6,3.1,59,0.00,,,0.00,pywws,2013-10-01 15:41:00,
2013-10-01 10:51:00,71.6,57.9,29.86,SW,225,2.2,5.4,62,0.00,,,0.00,pywws,2013-10-01 15:51:00,
2013-10-01 11:01:00,71.8,58.0,29.86,SW,225,4.5,7.6,62,0.00,,,0.00,pywws,2013-10-01 16:01:00,
2013-10-01 11:11:00,72.3,58.1,29.86,NW,315,1.6,2.2,61,0.00,,,0.00,pywws,2013-10-01 16:11:00,
2013-10-01 11:21:00,73.0,57.4,29.86,SE,135,1.6,2.2,58,0.00,,,0.00,pywws,2013-10-01 16:21:00,
2013-10-01 11:31:00,75.0,59.7,29.86,SW,225,1.6,3.1,59,0.00,,,0.00,pywws,2013-10-01 16:31:00,
2013-10-01 11:41:00,74.8,58.6,29.86,NW,315,1.6,2.2,57,0.00,,,0.00,pywws,2013-10-01 16:41:00,
2013-10-01 11:51:00,75.2,58.4,29.87,North,-999,0.0,1.6,56,0.00,,,0.00,pywws,2013-10-01 16:51:00,
2013-10-01 12:01:00,76.8,58.9,29.86,West,270,0.7,2.2,54,0.00,,,0.00,pywws,2013-10-01 17:01:00,
2013-10-01 12:11:00,77.4,58.9,29.86,NW,315,1.6,3.1,53,0.00,,,0.00,pywws,2013-10-01 17:11:00,
2013-10-01 12:21:00,81.1,59.0,29.87,NW,315,0.7,2.2,47,0.00,,,0.00,pywws,2013-10-01 17:21:00,
2013-10-01 12:31:00,83.8,60.2,29.87,North,0,1.6,3.1,45,0.00,,,0.00,pywws,2013-10-01 17:31:00,
2013-10-01 12:41:00,82.8,58.6,29.87,South,180,2.2,5.4,44,0.00,,,0.00,pywws,2013-10-01 17:41:00,
2013-10-01 12:51:00,82.0,57.9,29.88,West,270,1.6,2.2,44,0.00,,,0.00,pywws,2013-10-01 17:51:00,
2013-10-01 13:01:00,84.7,60.4,29.88,West,270,0.7,1.6,44,0.00,,,0.00,pywws,2013-10-01 18:01:00,
2013-10-01 13:11:00,84.2,59.9,29.87,North,0,1.6,3.1,44,0.00,,,0.00,pywws,2013-10-01 18:11:00,
2013-10-01 13:21:00,84.9,60.5,29.88,North,-999,0.0,1.6,44,0.00,,,0.00,pywws,2013-10-01 18:21:00,
2013-10-01 13:31:00,85.8,60.7,29.88,SW,225,1.6,3.1,43,0.00,,,0.00,pywws,2013-10-01 18:31:00,
2013-10-01 13:41:00,85.1,60.7,29.88,South,180,2.2,3.8,44,0.00,,,0.00,pywws,2013-10-01 18:41:00,
2013-10-01 13:51:00,85.6,60.5,29.87,SW,225,3.1,4.5,43,0.00,,,0.00,pywws,2013-10-01 18:51:00,
2013-10-01 14:01:00,86.5,60.0,29.88,North,-999,0.0,0.7,41,0.00,,,0.00,pywws,2013-10-01 19:01:00,
2013-10-01 14:11:00,86.9,59.6,29.88,North,-999,0.0,0.0,40,0.00,,,0.00,pywws,2013-10-01 19:11:00,
2013-10-01 14:21:00,86.9,59.6,29.87,SW,225,0.7,1.6,40,0.00,,,0.00,pywws,2013-10-01 19:21:00,
2013-10-01 14:31:00,87.3,58.5,29.88,North,-999,0.0,0.7,38,0.00,,,0.00,pywws,2013-10-01 19:31:00,
2013-10-01 14:41:00,88.7,58.3,29.87,North,-999,0.0,0.7,36,0.00,,,0.00,pywws,2013-10-01 19:41:00,
2013-10-01 14:51:00,89.8,56.8,29.88,North,-999,0.0,0.0,33,0.00,,,0.00,pywws,2013-10-01 19:51:00,
2013-10-01 15:01:00,88.5,57.3,29.88,North,-999,0.0,0.0,35,0.00,,,0.00,pywws,2013-10-01 20:01:00,
2013-10-01 15:11:00,90.3,58.1,29.88,North,-999,0.0,0.0,34,0.00,,,0.00,pywws,2013-10-01 20:11:00,
2013-10-01 15:21:00,89.4,56.5,29.88,North,-999,0.0,0.0,33,0.00,,,0.00,pywws,2013-10-01 20:21:00,
2013-10-01 15:31:00,89.4,55.6,29.88,North,-999,0.0,0.7,32,0.00,,,0.00,pywws,2013-10-01 20:31:00,
2013-10-01 15:41:00,89.6,53.1,29.88,North,-999,0.0,0.0,29,0.00,,,0.00,pywws,2013-10-01 20:41:00,
2013-10-01 15:51:00,89.1,55.3,29.88,North,-999,0.0,0.7,32,0.00,,,0.00,pywws,2013-10-01 20:51:00,
2013-10-01 16:01:00,88.0,51.7,29.88,North,-999,0.0,0.7,29,0.00,,,0.00,pywws,2013-10-01 21:01:00,
2013-10-01 16:11:00,88.2,48.9,29.88,North,-999,0.0,0.0,26,0.00,,,0.00,pywws,2013-10-01 21:11:00,
2013-10-01 16:21:00,87.8,50.6,29.88,North,-999,0.0,0.7,28,0.00,,,0.00,pywws,2013-10-01 21:21:00,
2013-10-01 16:31:00,87.4,49.3,29.88,North,-999,0.0,0.0,27,0.00,,,0.00,pywws,2013-10-01 21:31:00,
2013-10-01 16:41:00,87.1,50.0,29.88,North,-999,0.0,0.7,28,0.00,,,0.00,pywws,2013-10-01 21:41:00,
2013-10-01 16:51:00,85.6,50.6,29.88,North,-999,0.0,0.0,30,0.00,,,0.00,pywws,2013-10-01 21:51:00,
2013-10-01 17:01:00,83.7,51.5,29.89,NW,315,1.6,5.4,33,0.00,,,0.00,pywws,2013-10-01 22:01:00,
2013-10-01 17:11:00,82.4,48.7,29.89,North,-999,0.0,0.0,31,0.00,,,0.00,pywws,2013-10-01 22:11:00,
2013-10-01 17:21:00,81.7,48.1,29.89,North,-999,0.0,0.7,31,0.00,,,0.00,pywws,2013-10-01 22:21:00,
2013-10-01 17:31:00,81.9,47.4,29.89,North,-999,0.0,0.0,30,0.00,,,0.00,pywws,2013-10-01 22:31:00,
2013-10-01 17:41:00,80.6,45.4,29.90,North,-999,0.0,0.7,29,0.00,,,0.00,pywws,2013-10-01 22:41:00,
2013-10-01 17:51:00,79.2,45.9,29.90,North,-999,0.0,0.7,31,0.00,,,0.00,pywws,2013-10-01 22:51:00,
2013-10-01 18:01:00,77.9,46.5,29.91,North,-999,0.0,0.0,33,0.00,,,0.00,pywws,2013-10-01 23:01:00,
2013-10-01 18:11:00,77.2,45.0,29.91,North,-999,0.0,0.7,32,0.00,,,0.00,pywws,2013-10-01 23:11:00,
2013-10-01 18:21:00,75.6,45.2,29.90,North,-999,0.0,0.0,34,0.00,,,0.00,pywws,2013-10-01 23:21:00,
2013-10-01 18:31:00,74.3,44.9,29.91,North,-999,0.0,0.0,35,0.00,,,0.00,pywws,2013-10-01 23:31:00,
2013-10-01 18:41:00,72.7,44.2,29.91,North,-999,0.0,0.0,36,0.00,,,0.00,pywws,2013-10-01 23:41:00,
2013-10-01 18:51:00,71.2,45.0,29.91,North,-999,0.0,0.0,39,0.00,,,0.00,pywws,2013-10-01 23:51:00,
2013-10-01 19:01:00,70.2,46.0,29.91,North,-999,0.0,0.7,42,0.00,,,0.00,pywws,2013-10-02 00:01:00,
2013-10-01 19:11:00,69.8,46.3,29.92,North,-999,0.0,0.0,43,0.00,,,0.00,pywws,2013-10-02 00:11:00,
2013-10-01 19:21:00,69.1,45.6,29.92,North,-999,0.0,0.0,43,0.00,,,0.00,pywws,2013-10-02 00:21:00,
2013-10-01 19:31:00,68.9,45.5,29.92,North,-999,0.0,0.0,43,0.00,,,0.00,pywws,2013-10-02 00:31:00,
2013-10-01 19:41:00,68.7,45.9,29.92,North,-999,0.0,0.0,44,0.00,,,0.00,pywws,2013-10-02 00:41:00,
2013-10-01 19:51:00,68.4,45.0,29.93,North,-999,0.0,0.0,43,0.00,,,0.00,pywws,2013-10-02 00:51:00,
2013-10-01 20:01:00,67.6,45.5,29.93,North,-999,0.0,0.0,45,0.00,,,0.00,pywws,2013-10-02 01:01:00,
2013-10-01 20:11:00,67.1,45.6,29.93,North,-999,0.0,0.0,46,0.00,,,0.00,pywws,2013-10-02 01:11:00,
2013-10-01 20:21:00,66.7,44.7,29.94,North,-999,0.0,0.0,45,0.00,,,0.00,pywws,2013-10-02 01:21:00,
2013-10-01 20:31:00,66.2,44.8,29.94,North,-999,0.0,0.0,46,0.00,,,0.00,pywws,2013-10-02 01:31:00,
2013-10-01 20:41:00,65.8,46.7,29.94,North,-999,0.0,0.0,50,0.00,,,0.00,pywws,2013-10-02 01:41:00,
2013-10-01 20:51:00,65.1,46.0,29.94,North,-999,0.0,0.0,50,0.00,,,0.00,pywws,2013-10-02 01:51:00,
2013-10-01 21:01:00,64.9,44.8,29.94,North,-999,0.0,0.0,48,0.00,,,0.00,pywws,2013-10-02 02:01:00,
2013-10-01 21:11:00,64.6,47.1,29.94,North,-999,0.0,0.0,53,0.00,,,0.00,pywws,2013-10-02 02:11:00,
2013-10-01 21:21:00,63.9,45.4,29.95,North,-999,0.0,0.0,51,0.00,,,0.00,pywws,2013-10-02 02:21:00,
2013-10-01 21:31:00,62.8,45.4,29.95,North,-999,0.0,0.0,53,0.00,,,0.00,pywws,2013-10-02 02:31:00,
2013-10-01 21:41:00,61.7,46.8,29.96,North,-999,0.0,0.0,58,0.00,,,0.00,pywws,2013-10-02 02:41:00,
2013-10-01 21:51:00,61.3,46.9,29.96,North,-999,0.0,0.0,59,0.00,,,0.00,pywws,2013-10-02 02:51:00,
2013-10-01 22:01:00,60.8,46.4,29.96,North,-999,0.0,0.0,59,0.00,,,0.00,pywws,2013-10-02 03:01:00,
2013-10-01 22:11:00,59.9,47.3,29.96,North,-999,0.0,0.0,63,0.00,,,0.00,pywws,2013-10-02 03:11:00,
2013-10-01 22:21:00,59.7,47.5,29.96,North,-999,0.0,0.0,64,0.00,,,0.00,pywws,2013-10-02 03:21:00,
2013-10-01 22:31:00,59.7,47.5,29.96,North,-999,0.0,0.0,64,0.00,,,0.00,pywws,2013-10-02 03:31:00,
2013-10-01 22:41:00,60.1,46.6,29.97,North,-999,0.0,0.0,61,0.00,,,0.00,pywws,2013-10-02 03:41:00,
2013-10-01 22:51:00,60.3,46.3,29.97,North,-999,0.0,0.0,60,0.00,,,0.00,pywws,2013-10-02 03:51:00,
2013-10-01 23:01:00,60.1,47.4,29.97,North,-999,0.0,0.0,63,0.00,,,0.00,pywws,2013-10-02 04:01:00,
2013-10-01 23:11:00,59.7,47.1,29.97,North,-999,0.0,0.0,63,0.00,,,0.00,pywws,2013-10-02 04:11:00,
2013-10-01 23:21:00,58.3,47.0,29.97,North,-999,0.0,0.0,66,0.00,,,0.00,pywws,2013-10-02 04:21:00,
2013-10-01 23:31:00,57.7,46.9,29.98,North,-999,0.0,0.0,67,0.00,,,0.00,pywws,2013-10-02 04:31:00,
2013-10-01 23:41:00,56.7,46.6,29.98,North,-999,0.0,0.0,69,0.00,,,0.00,pywws,2013-10-02 04:41:00,
2013-10-01 23:51:00,56.3,47.0,29.98,North,-999,0.0,0.0,71,0.00,,,0.00,pywws,2013-10-02 04:51:00,